owner,sensor,date,latitude,longitude,vertical_datum,wind_speed,wind_to_direction,wind_speed_of_gust,qcFlag 
ADCP,ioos:station:wmo:42364:1,2010-06-01T00:00:00Z,29.0600,-88.0900,122.0,4.0,180.0,4.0,'11111222,11111222,11111222' 
ADCP,ioos:station:wmo:42364:1,2010-06-01T00:15:00Z,29.0600,-88.0900,122.0,4.0,180.0,4.0,'11111222,11111222,11111222' 
ADCP,ioos:station:wmo:42364:1,2010-06-01T00:30:00Z,29.0600,-88.0900,122.0,4.0,170.0,4.0,'11111222,11111222,11111222' 
ADCP,ioos:station:wmo:42364:1,2010-06-01T00:45:00Z,29.0600,-88.0900,122.0,4.0,180.0,4.0,'11111222,11111222,11111222' 
ADCP,ioos:station:wmo:42364:1,2010-06-01T01:00:00Z,29.0600,-88.0900,122.0,4.0,180.0,4.0,'11111222,11111222,11111222' 
ADCP,ioos:station:wmo:42364:1,2010-06-01T01:15:00Z,29.0600,-88.0900,122.0,3.0,180.0,3.0,'11111222,11111222,11111222' 
ADCP,ioos:station:wmo:42364:1,2010-06-01T01:30:00Z,29.0600,-88.0900,122.0,4.0,170.0,5.0,'11111222,11111222,11111222' 
ADCP,ioos:station:wmo:42364:1,2010-06-01T01:45:00Z,29.0600,-88.0900,122.0,4.0,190.0,4.0,'11111222,11111222,11111222' 
ADCP,ioos:station:wmo:42364:1,2010-06-01T02:00:00Z,29.0600,-88.0900,122.0,5.0,190.0,5.0,'11111222,11111222,11111222' 
ADCP,ioos:station:wmo:42364:1,2010-06-01T02:15:00Z,29.0600,-88.0900,122.0,4.0,190.0,4.0,'11111222,11111222,11111222' 
ADCP,ioos:station:wmo:42364:1,2010-06-01T02:30:00Z,29.0600,-88.0900,122.0,5.0,200.0,5.0,'11111222,11111222,11111222' 
ADCP,ioos:station:wmo:42364:1,2010-06-01T02:45:00Z,29.0600,-88.0900,122.0,5.0,190.0,5.0,'11111222,11111222,11111222' 
ADCP,ioos:station:wmo:42364:1,2010-06-01T03:00:00Z,29.0600,-88.0900,122.0,5.0,190.0,5.0,'11111222,11111222,11111222' 
ADCP,ioos:station:wmo:42364:1,2010-06-01T03:15:00Z,29.0600,-88.0900,122.0,4.0,180.0,4.0,'11111222,11111222,11111222' 
ADCP,ioos:station:wmo:42364:1,2010-06-01T03:30:00Z,29.0600,-88.0900,122.0,5.0,190.0,5.0,'11111222,11111222,11111222' 
ADCP,ioos:station:wmo:42364:1,2010-06-01T03:45:00Z,29.0600,-88.0900,122.0,4.0,190.0,4.0,'11111222,11111222,11111222' 
ADCP,ioos:station:wmo:42364:1,2010-06-01T04:00:00Z,29.0600,-88.0900,122.0,4.0,200.0,4.0,'11111222,11111222,11111222' 
ADCP,ioos:station:wmo:42364:1,2010-06-01T04:15:00Z,29.0600,-88.0900,122.0,5.0,190.0,5.0,'11111222,11111222,11111222' 
ADCP,ioos:station:wmo:42364:1,2010-06-01T04:30:00Z,29.0600,-88.0900,122.0,4.0,190.0,5.0,'11111222,11111222,11111222' 
ADCP,ioos:station:wmo:42364:1,2010-06-01T04:45:00Z,29.0600,-88.0900,122.0,5.0,190.0,5.0,'11111222,11111222,11111222' 
ADCP,ioos:station:wmo:42364:1,2010-06-01T05:00:00Z,29.0600,-88.0900,122.0,6.0,190.0,6.0,'11111222,11111222,11111222' 
ADCP,ioos:station:wmo:42364:1,2010-06-01T05:15:00Z,29.0600,-88.0900,122.0,6.0,200.0,6.0,'11111222,11111222,11111222' 
ADCP,ioos:station:wmo:42364:1,2010-06-01T05:30:00Z,29.0600,-88.0900,122.0,6.0,190.0,6.0,'11111222,11111222,11111222' 
ADCP,ioos:station:wmo:42364:1,2010-06-01T05:45:00Z,29.0600,-88.0900,122.0,5.0,200.0,5.0,'11111222,11111222,11111222' 
ADCP,ioos:station:wmo:42364:1,2010-06-01T06:00:00Z,29.0600,-88.0900,122.0,5.0,190.0,5.0,'11111222,11111222,11111222' 
ADCP,ioos:station:wmo:42364:1,2010-06-01T06:15:00Z,29.0600,-88.0900,122.0,5.0,200.0,5.0,'11111222,11111222,11111222' 
ADCP,ioos:station:wmo:42364:1,2010-06-01T06:30:00Z,29.0600,-88.0900,122.0,5.0,190.0,5.0,'11111222,11111222,11111222' 
ADCP,ioos:station:wmo:42364:1,2010-06-01T06:45:00Z,29.0600,-88.0900,122.0,5.0,190.0,5.0,'11111222,11111222,11111222' 
ADCP,ioos:station:wmo:42364:1,2010-06-01T07:00:00Z,29.0600,-88.0900,122.0,5.0,200.0,5.0,'11111222,11111222,11111222' 
ADCP,ioos:station:wmo:42364:1,2010-06-01T07:15:00Z,29.0600,-88.0900,122.0,5.0,210.0,5.0,'11111222,11111222,11111222' 
ADCP,ioos:station:wmo:42364:1,2010-06-01T07:30:00Z,29.0600,-88.0900,122.0,5.0,220.0,6.0,'11111222,11111222,11111222' 
ADCP,ioos:station:wmo:42364:1,2010-06-01T07:45:00Z,29.0600,-88.0900,122.0,5.0,230.0,5.0,'11111222,11111222,11111222' 
ADCP,ioos:station:wmo:42364:1,2010-06-01T08:00:00Z,29.0600,-88.0900,122.0,4.0,220.0,5.0,'11111222,11111222,11111222' 
ADCP,ioos:station:wmo:42364:1,2010-06-01T08:15:00Z,29.0600,-88.0900,122.0,3.0,240.0,3.0,'11111222,11111222,11111222' 
ADCP,ioos:station:wmo:42364:1,2010-06-01T08:30:00Z,29.0600,-88.0900,122.0,4.0,240.0,4.0,'11111222,11111222,11111222' 
ADCP,ioos:station:wmo:42364:1,2010-06-01T08:45:00Z,29.0600,-88.0900,122.0,4.0,230.0,4.0,'11111222,11111222,11111222' 
ADCP,ioos:station:wmo:42364:1,2010-06-01T09:00:00Z,29.0600,-88.0900,122.0,4.0,220.0,4.0,'11111222,11111222,11111222' 
ADCP,ioos:station:wmo:42364:1,2010-06-01T09:15:00Z,29.0600,-88.0900,122.0,4.0,220.0,4.0,'11111222,11111222,11111222' 
ADCP,ioos:station:wmo:42364:1,2010-06-01T09:30:00Z,29.0600,-88.0900,122.0,4.0,210.0,4.0,'11111222,11111222,11111222' 
ADCP,ioos:station:wmo:42364:1,2010-06-01T09:45:00Z,29.0600,-88.0900,122.0,3.0,220.0,3.0,'11111222,11111222,11111222' 
ADCP,ioos:station:wmo:42364:1,2010-06-01T10:00:00Z,29.0600,-88.0900,122.0,3.0,220.0,3.0,'11111222,11111222,11111222' 
ADCP,ioos:station:wmo:42364:1,2010-06-01T10:15:00Z,29.0600,-88.0900,122.0,2.0,220.0,2.0,'11111222,11111222,11111222' 
ADCP,ioos:station:wmo:42364:1,2010-06-01T10:30:00Z,29.0600,-88.0900,122.0,4.0,230.0,4.0,'11111222,11111222,11111222' 
ADCP,ioos:station:wmo:42364:1,2010-06-01T10:45:00Z,29.0600,-88.0900,122.0,3.0,210.0,4.0,'11111222,11111222,11111222' 
ADCP,ioos:station:wmo:42364:1,2010-06-01T11:00:00Z,29.0600,-88.0900,122.0,4.0,230.0,4.0,'11111222,11111222,11111222' 
ADCP,ioos:station:wmo:42364:1,2010-06-01T11:15:00Z,29.0600,-88.0900,122.0,4.0,210.0,4.0,'11111222,11111222,11111222' 
ADCP,ioos:station:wmo:42364:1,2010-06-01T11:30:00Z,29.0600,-88.0900,122.0,3.0,230.0,3.0,'11111222,11111222,11111222' 
ADCP,ioos:station:wmo:42364:1,2010-06-01T11:45:00Z,29.0600,-88.0900,122.0,4.0,230.0,4.0,'11111222,11111222,11111222' 
ADCP,ioos:station:wmo:42364:1,2010-06-01T12:00:00Z,29.0600,-88.0900,122.0,3.0,230.0,3.0,'11111222,11111222,11111222' 
ADCP,ioos:station:wmo:42364:1,2010-06-01T12:15:00Z,29.0600,-88.0900,122.0,3.0,240.0,3.0,'11111222,11111222,11111222' 
ADCP,ioos:station:wmo:42364:1,2010-06-01T12:30:00Z,29.0600,-88.0900,122.0,3.0,240.0,4.0,'11111222,11111222,11111222' 
ADCP,ioos:station:wmo:42364:1,2010-06-01T12:45:00Z,29.0600,-88.0900,122.0,3.0,230.0,3.0,'11111222,11111222,11111222' 
ADCP,ioos:station:wmo:42364:1,2010-06-01T13:00:00Z,29.0600,-88.0900,122.0,2.0,240.0,2.0,'11111222,11111222,11111222' 
ADCP,ioos:station:wmo:42364:1,2010-06-01T13:15:00Z,29.0600,-88.0900,122.0,3.0,240.0,3.0,'11111222,11111222,11111222' 
ADCP,ioos:station:wmo:42364:1,2010-06-01T13:30:00Z,29.0600,-88.0900,122.0,3.0,240.0,3.0,'11111222,11111222,11111222' 
ADCP,ioos:station:wmo:42364:1,2010-06-01T14:15:00Z,29.0600,-88.0900,122.0,0.0,0.0,0.0,'11111222,11111222,11111222' 
ADCP,ioos:station:wmo:42364:1,2010-06-01T14:30:00Z,29.0600,-88.0900,122.0,0.0,0.0,1.0,'11111222,11111222,11111222' 
ADCP,ioos:station:wmo:42364:1,2010-06-01T14:45:00Z,29.0600,-88.0900,122.0,1.0,110.0,1.0,'11111222,11111222,11111222' 
ADCP,ioos:station:wmo:42364:1,2010-06-01T15:00:00Z,29.0600,-88.0900,122.0,1.0,160.0,1.0,'11111222,11111222,11111222' 
ADCP,ioos:station:wmo:42364:1,2010-06-01T15:15:00Z,29.0600,-88.0900,122.0,1.0,220.0,1.0,'11111222,11111222,11111222' 
ADCP,ioos:station:wmo:42364:1,2010-06-01T16:30:00Z,29.0600,-88.0900,122.0,0.0,0.0,1.0,'11111222,11111222,11111222' 
ADCP,ioos:station:wmo:42364:1,2010-06-01T17:00:00Z,29.0600,-88.0900,122.0,1.0,230.0,1.0,'11111222,11111222,11111222' 
ADCP,ioos:station:wmo:42364:1,2010-06-01T17:15:00Z,29.0600,-88.0900,122.0,2.0,210.0,2.0,'11111222,11111222,11111222' 
ADCP,ioos:station:wmo:42364:1,2010-06-01T17:30:00Z,29.0600,-88.0900,122.0,3.0,220.0,3.0,'11111222,11111222,11111222' 
ADCP,ioos:station:wmo:42364:1,2010-06-01T17:45:00Z,29.0600,-88.0900,122.0,3.0,200.0,3.0,'11111222,11111222,11111222' 
ADCP,ioos:station:wmo:42364:1,2010-06-01T18:15:00Z,29.0600,-88.0900,122.0,3.0,210.0,3.0,'11111222,11111222,11111222' 
ADCP,ioos:station:wmo:42364:1,2010-06-01T19:00:00Z,29.0600,-88.0900,122.0,3.0,210.0,3.0,'11111222,11111222,11111222' 
ADCP,ioos:station:wmo:42364:1,2010-06-01T19:15:00Z,29.0600,-88.0900,122.0,3.0,210.0,3.0,'11111222,11111222,11111222' 
ADCP,ioos:station:wmo:42364:1,2010-06-01T19:45:00Z,29.0600,-88.0900,122.0,3.0,200.0,3.0,'11111222,11111222,11111222' 
ADCP,ioos:station:wmo:42364:1,2010-06-01T20:00:00Z,29.0600,-88.0900,122.0,3.0,180.0,3.0,'11111222,11111222,11111222' 
ADCP,ioos:station:wmo:42364:1,2010-06-01T20:15:00Z,29.0600,-88.0900,122.0,4.0,190.0,4.0,'11111222,11111222,11111222' 
ADCP,ioos:station:wmo:42364:1,2010-06-01T20:30:00Z,29.0600,-88.0900,122.0,3.0,170.0,4.0,'11111222,11111222,11111222' 
ADCP,ioos:station:wmo:42364:1,2010-06-01T20:45:00Z,29.0600,-88.0900,122.0,4.0,180.0,4.0,'11111222,11111222,11111222' 
ADCP,ioos:station:wmo:42364:1,2010-06-01T21:00:00Z,29.0600,-88.0900,122.0,3.0,190.0,4.0,'11111222,11111222,11111222' 
ADCP,ioos:station:wmo:42364:1,2010-06-01T21:15:00Z,29.0600,-88.0900,122.0,3.0,170.0,3.0,'11111222,11111222,11111222' 
ADCP,ioos:station:wmo:42364:1,2010-06-01T21:30:00Z,29.0600,-88.0900,122.0,4.0,170.0,4.0,'11111222,11111222,11111222' 
ADCP,ioos:station:wmo:42364:1,2010-06-01T21:45:00Z,29.0600,-88.0900,122.0,5.0,190.0,5.0,'11111222,11111222,11111222' 
ADCP,ioos:station:wmo:42364:1,2010-06-01T22:00:00Z,29.0600,-88.0900,122.0,6.0,190.0,6.0,'11111222,11111222,11111222' 
ADCP,ioos:station:wmo:42364:1,2010-06-01T22:15:00Z,29.0600,-88.0900,122.0,6.0,200.0,6.0,'11111222,11111222,11111222' 
ADCP,ioos:station:wmo:42364:1,2010-06-01T22:30:00Z,29.0600,-88.0900,122.0,6.0,180.0,6.0,'11111222,11111222,11111222' 
ADCP,ioos:station:wmo:42364:1,2010-06-01T22:45:00Z,29.0600,-88.0900,122.0,6.0,190.0,6.0,'11111222,11111222,11111222' 
ADCP,ioos:station:wmo:42364:1,2010-06-01T23:00:00Z,29.0600,-88.0900,122.0,7.0,190.0,7.0,'11111222,11111222,11111222' 
ADCP,ioos:station:wmo:42364:1,2010-06-01T23:15:00Z,29.0600,-88.0900,122.0,6.0,190.0,6.0,'11111222,11111222,11111222' 
ADCP,ioos:station:wmo:42364:1,2010-06-01T23:30:00Z,29.0600,-88.0900,122.0,5.0,190.0,5.0,'11111222,11111222,11111222' 
ADCP,ioos:station:wmo:42364:1,2010-06-01T23:45:00Z,29.0600,-88.0900,122.0,6.0,200.0,6.0,'11111222,11111222,11111222' 
ADCP,ioos:station:wmo:42364:1,2010-06-02T00:00:00Z,29.0600,-88.0900,122.0,5.0,190.0,5.0,'11111222,11111222,11111222' 
ADCP,ioos:station:wmo:42364:1,2010-06-02T00:15:00Z,29.0600,-88.0900,122.0,5.0,180.0,5.0,'11111222,11111222,11111222' 
ADCP,ioos:station:wmo:42364:1,2010-06-02T00:30:00Z,29.0600,-88.0900,122.0,4.0,190.0,4.0,'11111222,11111222,11111222' 
ADCP,ioos:station:wmo:42364:1,2010-06-02T00:45:00Z,29.0600,-88.0900,122.0,3.0,200.0,3.0,'11111222,11111222,11111222' 
ADCP,ioos:station:wmo:42364:1,2010-06-02T01:00:00Z,29.0600,-88.0900,122.0,4.0,200.0,4.0,'11111222,11111222,11111222' 
ADCP,ioos:station:wmo:42364:1,2010-06-02T01:15:00Z,29.0600,-88.0900,122.0,4.0,200.0,4.0,'11111222,11111222,11111222' 
ADCP,ioos:station:wmo:42364:1,2010-06-02T01:30:00Z,29.0600,-88.0900,122.0,4.0,200.0,4.0,'11111222,11111222,11111222' 
ADCP,ioos:station:wmo:42364:1,2010-06-02T01:45:00Z,29.0600,-88.0900,122.0,4.0,210.0,4.0,'11111222,11111222,11111222' 
ADCP,ioos:station:wmo:42364:1,2010-06-02T02:00:00Z,29.0600,-88.0900,122.0,4.0,210.0,4.0,'11111222,11111222,11111222' 
ADCP,ioos:station:wmo:42364:1,2010-06-02T02:15:00Z,29.0600,-88.0900,122.0,5.0,200.0,5.0,'11111222,11111222,11111222' 
ADCP,ioos:station:wmo:42364:1,2010-06-02T02:30:00Z,29.0600,-88.0900,122.0,5.0,200.0,5.0,'11111222,11111222,11111222' 
ADCP,ioos:station:wmo:42364:1,2010-06-02T02:45:00Z,29.0600,-88.0900,122.0,6.0,190.0,6.0,'11111222,11111222,11111222' 
ADCP,ioos:station:wmo:42364:1,2010-06-02T03:00:00Z,29.0600,-88.0900,122.0,5.0,210.0,5.0,'11111222,11111222,11111222' 
ADCP,ioos:station:wmo:42364:1,2010-06-02T03:15:00Z,29.0600,-88.0900,122.0,6.0,200.0,6.0,'11111222,11111222,11111222' 
ADCP,ioos:station:wmo:42364:1,2010-06-02T03:30:00Z,29.0600,-88.0900,122.0,5.0,190.0,5.0,'11111222,11111222,11111222' 
ADCP,ioos:station:wmo:42364:1,2010-06-02T03:45:00Z,29.0600,-88.0900,122.0,6.0,200.0,6.0,'11111222,11111222,11111222' 
ADCP,ioos:station:wmo:42364:1,2010-06-02T04:00:00Z,29.0600,-88.0900,122.0,6.0,210.0,6.0,'11111222,11111222,11111222' 
ADCP,ioos:station:wmo:42364:1,2010-06-02T04:15:00Z,29.0600,-88.0900,122.0,6.0,200.0,6.0,'11111222,11111222,11111222' 
ADCP,ioos:station:wmo:42364:1,2010-06-02T04:30:00Z,29.0600,-88.0900,122.0,6.0,190.0,6.0,'11111222,11111222,11111222' 
ADCP,ioos:station:wmo:42364:1,2010-06-02T04:45:00Z,29.0600,-88.0900,122.0,6.0,210.0,6.0,'11111222,11111222,11111222' 
ADCP,ioos:station:wmo:42364:1,2010-06-02T05:00:00Z,29.0600,-88.0900,122.0,6.0,210.0,6.0,'11111222,11111222,11111222' 
ADCP,ioos:station:wmo:42364:1,2010-06-02T05:15:00Z,29.0600,-88.0900,122.0,4.0,200.0,5.0,'11111222,11111222,11111222' 
ADCP,ioos:station:wmo:42364:1,2010-06-02T05:30:00Z,29.0600,-88.0900,122.0,5.0,200.0,5.0,'11111222,11111222,11111222' 
ADCP,ioos:station:wmo:42364:1,2010-06-02T05:45:00Z,29.0600,-88.0900,122.0,5.0,200.0,5.0,'11111222,11111222,11111222' 
ADCP,ioos:station:wmo:42364:1,2010-06-02T06:00:00Z,29.0600,-88.0900,122.0,6.0,200.0,6.0,'11111222,11111222,11111222' 
ADCP,ioos:station:wmo:42364:1,2010-06-02T06:15:00Z,29.0600,-88.0900,122.0,5.0,200.0,5.0,'11111222,11111222,11111222' 
ADCP,ioos:station:wmo:42364:1,2010-06-02T06:30:00Z,29.0600,-88.0900,122.0,6.0,190.0,6.0,'11111222,11111222,11111222' 
ADCP,ioos:station:wmo:42364:1,2010-06-02T06:45:00Z,29.0600,-88.0900,122.0,5.0,180.0,6.0,'11111222,11111222,11111222' 
ADCP,ioos:station:wmo:42364:1,2010-06-02T07:00:00Z,29.0600,-88.0900,122.0,7.0,190.0,7.0,'11111222,11111222,11111222' 
ADCP,ioos:station:wmo:42364:1,2010-06-02T07:15:00Z,29.0600,-88.0900,122.0,7.0,190.0,8.0,'11111222,11111222,11111222' 
ADCP,ioos:station:wmo:42364:1,2010-06-02T07:30:00Z,29.0600,-88.0900,122.0,8.0,200.0,8.0,'11111222,11111222,11111222' 
ADCP,ioos:station:wmo:42364:1,2010-06-02T07:45:00Z,29.0600,-88.0900,122.0,6.0,190.0,6.0,'11111222,11111222,11111222' 
ADCP,ioos:station:wmo:42364:1,2010-06-02T08:00:00Z,29.0600,-88.0900,122.0,6.0,190.0,6.0,'11111222,11111222,11111222' 
ADCP,ioos:station:wmo:42364:1,2010-06-02T08:15:00Z,29.0600,-88.0900,122.0,6.0,200.0,6.0,'11111222,11111222,11111222' 
ADCP,ioos:station:wmo:42364:1,2010-06-02T08:30:00Z,29.0600,-88.0900,122.0,6.0,190.0,6.0,'11111222,11111222,11111222' 
ADCP,ioos:station:wmo:42364:1,2010-06-02T08:45:00Z,29.0600,-88.0900,122.0,7.0,210.0,7.0,'11111222,11111222,11111222' 
ADCP,ioos:station:wmo:42364:1,2010-06-02T09:00:00Z,29.0600,-88.0900,122.0,6.0,190.0,7.0,'11111222,11111222,11111222' 
ADCP,ioos:station:wmo:42364:1,2010-06-02T09:15:00Z,29.0600,-88.0900,122.0,6.0,190.0,7.0,'11111222,11111222,11111222' 
ADCP,ioos:station:wmo:42364:1,2010-06-02T09:30:00Z,29.0600,-88.0900,122.0,7.0,190.0,7.0,'11111222,11111222,11111222' 
ADCP,ioos:station:wmo:42364:1,2010-06-02T10:00:00Z,29.0600,-88.0900,122.0,5.0,200.0,5.0,'11111222,11111222,11111222' 
ADCP,ioos:station:wmo:42364:1,2010-06-02T10:15:00Z,29.0600,-88.0900,122.0,5.0,190.0,5.0,'11111222,11111222,11111222' 
ADCP,ioos:station:wmo:42364:1,2010-06-02T10:30:00Z,29.0600,-88.0900,122.0,3.0,180.0,4.0,'11111222,11111222,11111222' 
ADCP,ioos:station:wmo:42364:1,2010-06-02T10:45:00Z,29.0600,-88.0900,122.0,4.0,180.0,4.0,'11111222,11111222,11111222' 
ADCP,ioos:station:wmo:42364:1,2010-06-02T11:00:00Z,29.0600,-88.0900,122.0,4.0,220.0,4.0,'11111222,11111222,11111222' 
ADCP,ioos:station:wmo:42364:1,2010-06-02T11:15:00Z,29.0600,-88.0900,122.0,4.0,220.0,4.0,'11111222,11111222,11111222' 
ADCP,ioos:station:wmo:42364:1,2010-06-02T11:30:00Z,29.0600,-88.0900,122.0,4.0,210.0,4.0,'11111222,11111222,11111222' 
ADCP,ioos:station:wmo:42364:1,2010-06-02T12:00:00Z,29.0600,-88.0900,122.0,4.0,210.0,5.0,'11111222,11111222,11111222' 
ADCP,ioos:station:wmo:42364:1,2010-06-02T12:15:00Z,29.0600,-88.0900,122.0,4.0,200.0,4.0,'11111222,11111222,11111222' 
ADCP,ioos:station:wmo:42364:1,2010-06-02T12:30:00Z,29.0600,-88.0900,122.0,3.0,190.0,3.0,'11111222,11111222,11111222' 
ADCP,ioos:station:wmo:42364:1,2010-06-02T12:45:00Z,29.0600,-88.0900,122.0,3.0,190.0,3.0,'11111222,11111222,11111222' 
ADCP,ioos:station:wmo:42364:1,2010-06-02T13:00:00Z,29.0600,-88.0900,122.0,3.0,180.0,3.0,'11111222,11111222,11111222' 
ADCP,ioos:station:wmo:42364:1,2010-06-02T13:15:00Z,29.0600,-88.0900,122.0,3.0,190.0,3.0,'11111222,11111222,11111222' 
ADCP,ioos:station:wmo:42364:1,2010-06-02T13:30:00Z,29.0600,-88.0900,122.0,3.0,190.0,3.0,'11111222,11111222,11111222' 
ADCP,ioos:station:wmo:42364:1,2010-06-02T13:45:00Z,29.0600,-88.0900,122.0,4.0,170.0,4.0,'11111222,11111222,11111222' 
ADCP,ioos:station:wmo:42364:1,2010-06-02T14:00:00Z,29.0600,-88.0900,122.0,4.0,180.0,4.0,'11111222,11111222,11111222' 
ADCP,ioos:station:wmo:42364:1,2010-06-02T14:15:00Z,29.0600,-88.0900,122.0,5.0,180.0,5.0,'11111222,11111222,11111222' 
ADCP,ioos:station:wmo:42364:1,2010-06-02T14:30:00Z,29.0600,-88.0900,122.0,6.0,170.0,6.0,'11111222,11111222,11111222' 
ADCP,ioos:station:wmo:42364:1,2010-06-02T14:45:00Z,29.0600,-88.0900,122.0,5.0,200.0,5.0,'11111222,11111222,11111222' 
ADCP,ioos:station:wmo:42364:1,2010-06-02T15:00:00Z,29.0600,-88.0900,122.0,6.0,190.0,7.0,'11111222,11111222,11111222' 
ADCP,ioos:station:wmo:42364:1,2010-06-02T15:15:00Z,29.0600,-88.0900,122.0,5.0,180.0,5.0,'11111222,11111222,11111222' 
ADCP,ioos:station:wmo:42364:1,2010-06-02T15:30:00Z,29.0600,-88.0900,122.0,5.0,190.0,5.0,'11111222,11111222,11111222' 
ADCP,ioos:station:wmo:42364:1,2010-06-02T16:00:00Z,29.0600,-88.0900,122.0,4.0,190.0,4.0,'11111222,11111222,11111222' 
ADCP,ioos:station:wmo:42364:1,2010-06-02T16:15:00Z,29.0600,-88.0900,122.0,5.0,180.0,5.0,'11111222,11111222,11111222' 
ADCP,ioos:station:wmo:42364:1,2010-06-02T16:30:00Z,29.0600,-88.0900,122.0,4.0,160.0,4.0,'11111222,11111222,11111222' 
ADCP,ioos:station:wmo:42364:1,2010-06-02T17:15:00Z,29.0600,-88.0900,122.0,5.0,170.0,5.0,'11111222,11111222,11111222' 
ADCP,ioos:station:wmo:42364:1,2010-06-02T17:30:00Z,29.0600,-88.0900,122.0,5.0,200.0,5.0,'11111222,11111222,11111222' 
ADCP,ioos:station:wmo:42364:1,2010-06-02T17:45:00Z,29.0600,-88.0900,122.0,4.0,190.0,4.0,'11111222,11111222,11111222' 
ADCP,ioos:station:wmo:42364:1,2010-06-02T18:00:00Z,29.0600,-88.0900,122.0,6.0,180.0,6.0,'11111222,11111222,11111222' 
ADCP,ioos:station:wmo:42364:1,2010-06-02T18:15:00Z,29.0600,-88.0900,122.0,5.0,200.0,5.0,'11111222,11111222,11111222' 
ADCP,ioos:station:wmo:42364:1,2010-06-02T18:30:00Z,29.0600,-88.0900,122.0,5.0,200.0,5.0,'11111222,11111222,11111222' 
ADCP,ioos:station:wmo:42364:1,2010-06-02T19:00:00Z,29.0600,-88.0900,122.0,6.0,190.0,6.0,'11111222,11111222,11111222' 
ADCP,ioos:station:wmo:42364:1,2010-06-02T19:15:00Z,29.0600,-88.0900,122.0,6.0,190.0,6.0,'11111222,11111222,11111222' 
ADCP,ioos:station:wmo:42364:1,2010-06-02T19:30:00Z,29.0600,-88.0900,122.0,9.0,220.0,9.0,'11111222,11111222,11111222' 
ADCP,ioos:station:wmo:42364:1,2010-06-02T19:45:00Z,29.0600,-88.0900,122.0,8.0,220.0,8.0,'11111222,11111222,11111222' 
ADCP,ioos:station:wmo:42364:1,2010-06-02T20:15:00Z,29.0600,-88.0900,122.0,6.0,220.0,6.0,'11111222,11111222,11111222' 
ADCP,ioos:station:wmo:42364:1,2010-06-02T20:30:00Z,29.0600,-88.0900,122.0,5.0,220.0,6.0,'11111222,11111222,11111222' 
ADCP,ioos:station:wmo:42364:1,2010-06-02T21:00:00Z,29.0600,-88.0900,122.0,4.0,210.0,4.0,'11111222,11111222,11111222' 
ADCP,ioos:station:wmo:42364:1,2010-06-02T21:15:00Z,29.0600,-88.0900,122.0,3.0,210.0,3.0,'11111222,11111222,11111222' 
ADCP,ioos:station:wmo:42364:1,2010-06-02T21:30:00Z,29.0600,-88.0900,122.0,5.0,200.0,5.0,'11111222,11111222,11111222' 
ADCP,ioos:station:wmo:42364:1,2010-06-02T21:45:00Z,29.0600,-88.0900,122.0,5.0,230.0,5.0,'11111222,11111222,11111222' 
ADCP,ioos:station:wmo:42364:1,2010-06-02T22:00:00Z,29.0600,-88.0900,122.0,4.0,250.0,4.0,'11111222,11111222,11111222' 
ADCP,ioos:station:wmo:42364:1,2010-06-02T22:15:00Z,29.0600,-88.0900,122.0,3.0,240.0,3.0,'11111222,11111222,11111222' 
ADCP,ioos:station:wmo:42364:1,2010-06-02T22:30:00Z,29.0600,-88.0900,122.0,1.0,260.0,2.0,'11111222,11111222,11111222' 
ADCP,ioos:station:wmo:42364:1,2010-06-02T22:45:00Z,29.0600,-88.0900,122.0,3.0,270.0,3.0,'11111222,11111222,11111222' 
ADCP,ioos:station:wmo:42364:1,2010-06-02T23:00:00Z,29.0600,-88.0900,122.0,1.0,210.0,1.0,'11111222,11111222,11111222' 
ADCP,ioos:station:wmo:42364:1,2010-06-02T23:15:00Z,29.0600,-88.0900,122.0,3.0,180.0,3.0,'11111222,11111222,11111222' 
ADCP,ioos:station:wmo:42364:1,2010-06-02T23:30:00Z,29.0600,-88.0900,122.0,3.0,160.0,3.0,'11111222,11111222,11111222' 
ADCP,ioos:station:wmo:42364:1,2010-06-02T23:45:00Z,29.0600,-88.0900,122.0,3.0,140.0,3.0,'11111222,11111222,11111222' 
ADCP,ioos:station:wmo:42364:1,2010-06-03T00:00:00Z,29.0600,-88.0900,122.0,4.0,150.0,4.0,'11111222,11111222,11111222' 
ADCP,ioos:station:wmo:42364:1,2010-06-03T00:15:00Z,29.0600,-88.0900,122.0,4.0,160.0,4.0,'11111222,11111222,11111222' 
ADCP,ioos:station:wmo:42364:1,2010-06-03T00:45:00Z,29.0600,-88.0900,122.0,2.0,180.0,2.0,'11111222,11111222,11111222' 
ADCP,ioos:station:wmo:42364:1,2010-06-03T01:00:00Z,29.0600,-88.0900,122.0,3.0,200.0,3.0,'11111222,11111222,11111222' 
ADCP,ioos:station:wmo:42364:1,2010-06-03T01:15:00Z,29.0600,-88.0900,122.0,2.0,190.0,2.0,'11111222,11111222,11111222' 
ADCP,ioos:station:wmo:42364:1,2010-06-03T01:30:00Z,29.0600,-88.0900,122.0,2.0,170.0,2.0,'11111222,11111222,11111222' 
ADCP,ioos:station:wmo:42364:1,2010-06-03T01:45:00Z,29.0600,-88.0900,122.0,2.0,190.0,2.0,'11111222,11111222,11111222' 
ADCP,ioos:station:wmo:42364:1,2010-06-03T02:00:00Z,29.0600,-88.0900,122.0,3.0,180.0,3.0,'11111222,11111222,11111222' 
ADCP,ioos:station:wmo:42364:1,2010-06-03T02:15:00Z,29.0600,-88.0900,122.0,2.0,160.0,2.0,'11111222,11111222,11111222' 
ADCP,ioos:station:wmo:42364:1,2010-06-03T02:30:00Z,29.0600,-88.0900,122.0,3.0,130.0,3.0,'11111222,11111222,11111222' 
ADCP,ioos:station:wmo:42364:1,2010-06-03T02:45:00Z,29.0600,-88.0900,122.0,4.0,120.0,5.0,'11111222,11111222,11111222' 
ADCP,ioos:station:wmo:42364:1,2010-06-03T03:00:00Z,29.0600,-88.0900,122.0,6.0,150.0,6.0,'11111222,11111222,11111222' 
ADCP,ioos:station:wmo:42364:1,2010-06-03T03:15:00Z,29.0600,-88.0900,122.0,6.0,150.0,6.0,'11111222,11111222,11111222' 
ADCP,ioos:station:wmo:42364:1,2010-06-03T03:30:00Z,29.0600,-88.0900,122.0,6.0,150.0,6.0,'11111222,11111222,11111222' 
ADCP,ioos:station:wmo:42364:1,2010-06-03T03:45:00Z,29.0600,-88.0900,122.0,6.0,140.0,6.0,'11111222,11111222,11111222' 
ADCP,ioos:station:wmo:42364:1,2010-06-03T04:00:00Z,29.0600,-88.0900,122.0,7.0,160.0,7.0,'11111222,11111222,11111222' 
ADCP,ioos:station:wmo:42364:1,2010-06-03T04:30:00Z,29.0600,-88.0900,122.0,6.0,160.0,6.0,'11111222,11111222,11111222' 
ADCP,ioos:station:wmo:42364:1,2010-06-03T04:45:00Z,29.0600,-88.0900,122.0,5.0,160.0,5.0,'11111222,11111222,11111222' 
ADCP,ioos:station:wmo:42364:1,2010-06-03T05:00:00Z,29.0600,-88.0900,122.0,6.0,170.0,6.0,'11111222,11111222,11111222' 
ADCP,ioos:station:wmo:42364:1,2010-06-03T05:30:00Z,29.0600,-88.0900,122.0,6.0,160.0,6.0,'11111222,11111222,11111222' 
ADCP,ioos:station:wmo:42364:1,2010-06-03T05:45:00Z,29.0600,-88.0900,122.0,7.0,170.0,7.0,'11111222,11111222,11111222' 
ADCP,ioos:station:wmo:42364:1,2010-06-03T06:15:00Z,29.0600,-88.0900,122.0,6.0,160.0,6.0,'11111222,11111222,11111222' 
ADCP,ioos:station:wmo:42364:1,2010-06-03T06:30:00Z,29.0600,-88.0900,122.0,6.0,160.0,6.0,'11111222,11111222,11111222' 
ADCP,ioos:station:wmo:42364:1,2010-06-03T07:15:00Z,29.0600,-88.0900,122.0,7.0,150.0,7.0,'11111222,11111222,11111222' 
ADCP,ioos:station:wmo:42364:1,2010-06-03T07:30:00Z,29.0600,-88.0900,122.0,7.0,170.0,8.0,'11111222,11111222,11111222' 
ADCP,ioos:station:wmo:42364:1,2010-06-03T07:45:00Z,29.0600,-88.0900,122.0,7.0,180.0,7.0,'11111222,11111222,11111222' 
ADCP,ioos:station:wmo:42364:1,2010-06-03T08:00:00Z,29.0600,-88.0900,122.0,7.0,170.0,8.0,'11111222,11111222,11111222' 
ADCP,ioos:station:wmo:42364:1,2010-06-03T08:15:00Z,29.0600,-88.0900,122.0,8.0,170.0,9.0,'11111222,11111222,11111222' 
ADCP,ioos:station:wmo:42364:1,2010-06-03T08:30:00Z,29.0600,-88.0900,122.0,10.0,170.0,10.0,'11111222,11111222,11111222' 